Temp
86 95 90 79 64 63 61 62 69 67 67 70 72 69 64 65 63 52 68 74 76 73 74 74 75 74 74 74 73 74 73 74 74 74 73 72 74 74 74 73 73 73 74 73 73 72 71 71 71
85 91 82 72 61 58 59 70 64 66 70 70 70 70 67 61 68 66 65 75 77 76 74 72 74 73 73 73 72 72 72 73 73 73 73 73 73 73 73 73 72 73 73 73 72 72 71 70 70
85 93 72 67 64 57 59 68 66 70 69 70 68 69 67 63 70 68 72 75 77 74 73 73 74 73 73 73 71 72 71 72 73 72 73 72 73 72 72 72 73 72 72 72 72 71 70 70 70
84 80 77 64 63 67 69 69 71 70 71 71 69 63 67 72 71 72 74 76 74 73 71 72 73 72 72 72 71 71 71 71 71 72 72 71 71 71 71 71 72 71 71 71 71 70 70 69 69
82 76 65 64 66 70 72 74 73 70 69 71 68 63 62 69 73 74 73 76 73 72 71 71 73 73 72 71 71 70 70 70 71 70 70 69 70 69 70 70 71 71 70 70 70 70 69 69 69
71 74 62 60 67 71 72 74 73 72 70 69 66 66 62 70 70 71 73 72 74 72 72 71 73 73 72 71 70 70 69 69 69 69 69 69 68 68 68 69 70 70 70 69 69 69 69 68 68
69 66 62 65 66 67 72 76 68 71 69 69 71 64 63 66 71 73 72 73 73 73 71 69 68 70 72 71 70 69 69 68 68 68 68 67 67 67 67 68 68 68 68 68 68 67 68 67 67
71 68 65 64 65 65 73 74 75 71 66 75 73 63 58 67 72 72 72 71 71 70 70 69 68 67 66 64 70 69 68 68 68 68 67 66 66 67 66 67 66 67 67 67 67 66 66 66 66
78 62 60 65 67 66 74 70 73 73 70 70 71 69 70 72 72 69 67 68 67 70 68 69 68 68 67 65 67 68 68 68 67 66 67 65 58 59 63 65 65 65 65 65 65 65 65 66 66
69 61 65 73 72 70 73 71 71 68 68 67 69 69 71 70 67 66 64 63 64 64 66 67 67 67 67 72 62 61 63 59 59 61 58 58 60 58 64 64 65 65 65 65 65 65 66 65 57
72 64 72 73 74 75 72 70 73 67 63 70 68 66 68 66 66 66 66 66 65 66 65 67 66 66 65 65 62 61 61 59 60 62 60 59 61 57 56 54 56 53 61 56 60 58 57 57 58
67 73 74 72 72 72 69 73 67 69 68 75 74 71 68 66 66 66 67 67 66 66 66 67 66 65 64 63 62 61 61 60 58 59 60 56 55 56 56 56 56 56 55 55 55 55 57 58 59
69 71 73 72 69 69 72 67 67 68 74 75 75 73 68 67 68 69 70 71 69 67 66 66 65 64 64 63 61 61 60 60 60 59 60 57 55 55 56 56 56 55 55 55 54 55 56 56 57
71 70 71 71 71 70 66 67 65 69 73 73 72 69 68 69 69 69 70 70 69 69 67 67 66 64 64 62 61 60 60 60 60 59 59 60 57 56 56 56 56 55 55 55 55 54 54 55 56
71 64 67 68 70 67 66 60 63 69 71 70 68 67 69 70 71 70 71 69 70 69 69 67 66 65 63 62 61 60 59 62 58 59 61 61 60 58 58 56 55 55 56 56 55 55 55 53 56
66 65 57 67 69 66 63 56 66 71 68 67 68 67 68 70 71 71 72 71 71 70 68 68 72 66 63 61 61 60 60 58 58 59 59 62 61 60 57 55 55 56 55 54 53 52 52 52 52
63 56 59 61 70 66 61 57 68 71 69 67 67 68 68 69 70 71 73 71 71 70 69 67 66 65 64 62 61 60 61 59 58 59 59 61 62 61 57 55 55 57 54 53 53 53 51 50 51
57 58 59 57 63 63 60 59 67 70 68 66 67 68 68 68 69 72 72 72 71 70 69 68 67 65 64 61 61 59 59 59 59 58 59 61 60 60 57 56 56 56 54 53 52 51 52 51 50
63 61 59 63 65 57 58 61 66 70 67 64 65 67 69 69 73 73 72 71 69 68 67 66 65 64 62 59 57 56 55 56 57 58 61 61 60 60 57 55 56 55 54 53 53 52 51 49 51
63 59 59 62 66 57 59 60 67 69 68 68 67 67 69 70 71 70 70 69 68 67 66 65 65 64 63 61 59 58 58 58 58 58 60 61 61 60 58 56 55 55 53 53 53 52 49 49 50
62 57 57 56 61 63 58 55 59 67 69 70 69 68 71 71 71 70 69 67 66 66 65 66 65 64 63 63 60 59 58 57 56 56 56 59 61 60 58 57 55 55 54 52 52 51 50 47 49
55 62 61 60 55 49 58 46 56 63 64 65 64 65 67 70 72 71 70 67 66 66 66 66 66 65 65 62 60 57 55 53 54 56 57 58 60 60 59 58 57 56 54 53 52 55 51 49 46
58 61 59 58 53 51 55 48 56 63 60 63 65 66 68 69 70 70 71 71 69 68 66 66 65 64 64 62 60 57 55 55 57 57 58 58 58 60 60 59 58 56 55 55 54 54 52 50 48
63 58 58 56 52 44 54 52 53 60 64 65 68 68 70 69 70 71 71 71 69 66 65 64 64 63 63 61 59 58 56 56 55 56 56 56 57 57 59 59 57 57 56 55 55 54 53 51 50
57 51 44 41 41 44 58 52 56 65 69 70 69 68 69 69 68 69 69 67 67 64 63 64 63 62 62 61 59 58 57 56 56 56 56 56 56 55 56 57 56 56 55 55 55 54 53 52 50
54 52 45 39 42 47 54 46 57 68 73 73 72 70 69 68 68 67 67 66 65 64 63 63 62 62 63 61 59 58 58 56 56 56 56 56 57 57 59 58 57 57 57 55 54 53 52 52 51
55 48 54 50 52 45 51 57 63 65 65 68 69 68 67 68 67 67 67 66 65 64 63 63 62 62 63 62 60 59 58 58 57 58 57 56 57 60 59 59 58 57 56 56 54 52 52 52 51
52 58 47 48 37 36 52 54 56 58 62 66 66 65 66 68 68 67 67 67 67 66 65 64 64 63 63 63 61 61 60 60 59 59 58 58 58 58 58 57 57 56 56 55 54 52 52 52 51
50 49 51 51 49 42 42 52 61 62 66 65 65 67 67 67 68 68 68 68 68 68 66 65 65 65 64 63 62 62 61 62 62 60 60 59 59 59 58 58 56 56 55 55 54 52 52 52 52
58 54 54 44 45 47 44 46 65 64 68 68 67 69 69 69 69 69 69 68 67 66 66 65 65 65 65 64 64 62 62 63 62 61 62 61 60 60 59 59 58 57 56 55 54 53 55 52 51
MSLP
1012.85 1011.68 1011.36 1011.75 1012.47 1011.79 1011.99 1012.85 1012.82 1013.48 1013.87 1014.56 1014.91 1014.97 1015.96 1016.81 1017.66 1019.69 1020.27 1020.37 1020.63 1021.55 1022.33 1022.67 1022.91 1023.24 1023.29 1023.41 1023.61 1023.45 1023.65 1023.49 1023.46 1023.39 1023.50 1023.49 1023.28 1023.23 1023.22 1023.28 1023.15 1023.02 1022.88 1022.70 1022.68 1022.97 1022.93 1022.87 1022.77
1012.87 1012.06 1011.60 1011.76 1011.86 1011.59 1012.29 1012.47 1013.46 1014.24 1014.66 1014.94 1015.09 1015.21 1015.76 1017.62 1018.51 1019.69 1020.31 1020.35 1020.56 1021.12 1021.95 1022.74 1023.11 1023.42 1023.42 1023.64 1023.83 1023.80 1023.90 1023.71 1023.72 1023.69 1023.68 1023.59 1023.55 1023.58 1023.57 1023.45 1023.52 1023.31 1023.13 1023.05 1023.20 1023.20 1023.27 1023.22 1023.10
1012.78 1011.90 1012.20 1011.55 1011.35 1011.78 1012.26 1012.92 1013.76 1014.48 1014.75 1014.78 1015.06 1015.59 1016.21 1017.89 1018.69 1019.53 1019.90 1020.15 1020.52 1021.12 1022.02 1022.79 1023.19 1023.51 1023.62 1023.74 1024.01 1024.01 1024.02 1023.87 1023.83 1023.94 1023.91 1023.94 1023.87 1023.92 1023.91 1023.85 1023.67 1023.64 1023.51 1023.51 1023.55 1023.58 1023.57 1023.55 1023.42
1012.25 1011.76 1011.86 1011.59 1011.43 1011.82 1012.13 1012.99 1013.77 1014.29 1014.67 1015.02 1015.13 1016.29 1017.50 1018.11 1018.39 1019.15 1019.97 1020.10 1020.71 1021.20 1022.16 1022.86 1023.19 1023.51 1023.70 1023.88 1024.02 1024.15 1024.20 1024.13 1024.24 1024.12 1024.20 1024.26 1024.26 1024.28 1024.29 1024.20 1024.04 1024.09 1023.99 1023.89 1023.82 1023.85 1023.88 1023.83 1023.73
1012.24 1012.14 1011.87 1011.42 1011.20 1011.65 1012.40 1013.11 1013.51 1013.90 1014.46 1014.86 1015.25 1016.23 1017.84 1018.73 1019.02 1019.56 1020.02 1020.15 1020.79 1021.34 1022.15 1022.83 1023.10 1023.43 1023.66 1023.90 1024.08 1024.27 1024.38 1024.42 1024.41 1024.56 1024.72 1024.80 1024.73 1024.73 1024.64 1024.57 1024.38 1024.30 1024.29 1024.27 1024.19 1024.08 1024.11 1024.03 1023.91
1012.48 1012.03 1012.04 1011.54 1011.26 1011.73 1012.35 1013.06 1013.44 1013.78 1014.28 1015.06 1015.37 1016.03 1018.19 1018.86 1019.41 1019.77 1020.05 1020.29 1020.61 1021.16 1021.86 1022.62 1023.12 1023.34 1023.61 1023.94 1024.20 1024.41 1024.58 1024.67 1024.68 1024.82 1024.97 1025.04 1025.05 1025.02 1024.96 1024.74 1024.64 1024.55 1024.51 1024.47 1024.47 1024.32 1024.25 1024.24 1024.19
1012.60 1012.58 1012.12 1011.59 1011.56 1011.88 1012.32 1012.93 1013.30 1013.69 1014.25 1014.86 1015.36 1015.95 1018.22 1018.95 1019.31 1019.59 1019.98 1020.14 1020.57 1021.08 1021.67 1022.40 1022.95 1023.30 1023.52 1023.94 1024.20 1024.51 1024.71 1024.85 1024.89 1025.03 1025.13 1025.32 1025.36 1025.28 1025.23 1025.12 1024.94 1024.90 1024.78 1024.68 1024.65 1024.59 1024.46 1024.44 1024.36
1012.73 1012.53 1012.16 1011.71 1011.64 1012.07 1012.52 1013.09 1013.67 1013.88 1014.78 1015.00 1015.42 1016.05 1017.76 1018.47 1019.02 1019.49 1019.90 1020.30 1020.75 1021.17 1021.45 1021.95 1022.48 1022.94 1023.30 1023.76 1024.13 1024.47 1024.76 1024.88 1024.98 1025.09 1025.24 1025.37 1025.33 1025.23 1025.20 1025.24 1025.20 1025.13 1025.05 1024.89 1024.80 1024.80 1024.74 1024.61 1024.45
1012.79 1012.82 1012.22 1011.75 1011.80 1012.46 1012.91 1013.24 1013.86 1014.32 1014.64 1015.15 1015.70 1016.35 1017.28 1018.20 1018.97 1019.56 1020.01 1020.43 1020.84 1021.25 1021.44 1021.63 1021.95 1022.27 1022.71 1023.35 1023.88 1024.30 1024.62 1024.85 1024.96 1025.09 1025.11 1025.07 1025.04 1025.13 1024.92 1025.15 1025.28 1025.33 1025.27 1025.16 1025.02 1024.98 1024.70 1024.55 1024.34
1012.75 1012.66 1012.29 1012.01 1012.01 1012.44 1012.99 1013.27 1013.82 1014.37 1014.55 1015.14 1016.00 1016.95 1017.64 1018.38 1019.02 1019.58 1020.00 1020.43 1020.80 1021.27 1021.39 1021.57 1021.87 1022.17 1022.51 1022.80 1023.61 1023.99 1024.31 1024.58 1024.68 1024.73 1024.92 1024.80 1024.63 1024.79 1024.87 1025.06 1025.10 1025.21 1025.18 1025.11 1025.01 1024.80 1024.53 1024.32 1024.39
1012.44 1012.51 1012.35 1012.69 1012.77 1012.86 1013.06 1013.52 1013.71 1014.07 1014.32 1014.31 1015.28 1016.54 1017.50 1018.35 1018.88 1019.27 1019.74 1019.96 1020.39 1020.87 1021.24 1021.49 1021.82 1022.10 1022.50 1022.83 1023.21 1023.48 1023.77 1024.05 1024.21 1024.29 1024.45 1024.58 1024.61 1024.66 1024.71 1024.94 1024.94 1025.16 1025.03 1024.96 1024.74 1024.67 1024.51 1024.35 1024.05
1012.58 1012.54 1012.87 1013.07 1013.43 1013.43 1013.50 1013.46 1013.65 1014.03 1014.00 1014.10 1014.49 1015.71 1016.90 1017.84 1018.31 1018.67 1019.09 1019.42 1019.86 1020.45 1020.88 1021.32 1021.64 1022.03 1022.33 1022.67 1022.94 1023.12 1023.46 1023.73 1024.05 1024.12 1024.27 1024.58 1024.74 1024.62 1024.52 1024.63 1024.68 1024.72 1024.69 1024.63 1024.52 1024.45 1024.23 1024.07 1023.86
1012.58 1012.67 1013.10 1013.38 1013.75 1013.86 1013.89 1014.00 1014.02 1013.79 1013.68 1014.09 1014.66 1015.65 1016.60 1017.21 1017.57 1018.02 1018.18 1018.65 1019.17 1019.85 1020.38 1020.97 1021.44 1021.92 1022.18 1022.49 1022.78 1022.96 1023.16 1023.46 1023.68 1023.88 1024.05 1024.34 1024.57 1024.59 1024.50 1024.44 1024.48 1024.53 1024.43 1024.48 1024.50 1024.39 1024.27 1024.14 1023.94
1012.61 1012.86 1013.11 1013.52 1013.73 1013.88 1014.17 1014.00 1014.02 1013.46 1013.64 1014.03 1014.71 1015.43 1015.99 1016.44 1016.85 1017.31 1017.68 1018.03 1018.47 1019.12 1019.75 1020.49 1021.19 1021.63 1021.91 1022.31 1022.53 1022.81 1022.94 1023.07 1023.30 1023.53 1023.72 1023.87 1024.15 1024.31 1024.31 1024.24 1024.23 1024.26 1024.26 1024.26 1024.33 1024.39 1024.29 1024.24 1023.99
1012.91 1013.09 1013.21 1013.33 1013.61 1013.88 1014.16 1014.08 1013.31 1013.37 1013.46 1013.95 1014.55 1015.06 1015.47 1015.74 1016.13 1016.54 1016.95 1017.43 1017.87 1018.40 1019.04 1019.80 1020.54 1021.19 1021.72 1022.01 1022.27 1022.54 1022.80 1022.83 1023.17 1023.31 1023.25 1023.40 1023.59 1023.81 1023.86 1023.99 1024.09 1024.07 1024.08 1024.12 1024.25 1024.31 1024.15 1024.14 1023.92
1013.01 1013.08 1012.94 1012.67 1013.38 1013.93 1014.33 1013.25 1012.64 1012.79 1013.45 1013.84 1014.11 1014.40 1014.79 1015.21 1015.47 1015.91 1016.22 1016.87 1017.33 1017.83 1018.55 1019.23 1019.85 1020.66 1021.36 1021.78 1022.03 1022.27 1022.52 1022.77 1022.91 1022.91 1022.90 1023.00 1023.14 1023.31 1023.52 1023.78 1023.88 1023.80 1023.90 1024.07 1024.31 1024.35 1024.31 1024.24 1024.02
1012.66 1012.36 1012.26 1012.79 1013.02 1013.52 1014.09 1013.16 1012.41 1012.59 1013.06 1013.50 1013.45 1013.77 1014.05 1014.57 1014.92 1015.35 1015.66 1016.29 1016.91 1017.28 1017.98 1018.80 1019.49 1020.26 1020.95 1021.31 1021.69 1021.96 1022.07 1022.35 1022.45 1022.55 1022.68 1022.66 1022.72 1022.87 1023.25 1023.51 1023.56 1023.53 1023.74 1023.85 1024.02 1024.13 1024.17 1024.04 1023.93
1012.52 1012.07 1011.92 1012.26 1013.12 1013.46 1013.49 1012.97 1012.48 1012.28 1012.59 1012.99 1012.93 1013.04 1013.41 1013.73 1014.25 1014.75 1015.18 1015.81 1016.38 1016.91 1017.47 1018.22 1019.05 1019.77 1020.35 1020.83 1021.30 1021.67 1021.91 1021.99 1022.04 1022.21 1022.21 1022.23 1022.40 1022.57 1022.88 1023.14 1023.29 1023.31 1023.51 1023.60 1023.63 1023.77 1023.64 1023.63 1023.67
1012.82 1012.55 1012.36 1012.05 1012.93 1013.21 1012.88 1012.40 1011.64 1011.20 1011.75 1012.13 1012.47 1012.45 1012.60 1012.86 1013.16 1013.95 1014.61 1015.40 1016.14 1016.67 1017.27 1017.82 1018.58 1019.26 1019.93 1020.53 1021.09 1021.45 1021.79 1021.79 1021.91 1021.78 1021.79 1021.87 1022.01 1022.23 1022.49 1022.81 1022.84 1022.82 1023.13 1023.22 1023.31 1023.37 1023.45 1023.58 1023.46
1013.07 1012.86 1012.50 1012.25 1012.71 1013.20 1012.47 1011.64 1010.77 1010.44 1010.44 1010.81 1011.42 1011.74 1011.83 1012.05 1012.59 1013.34 1014.27 1014.97 1015.68 1016.39 1017.06 1017.56 1018.10 1018.73 1019.33 1019.90 1020.36 1020.76 1021.08 1021.10 1021.04 1021.16 1021.26 1021.37 1021.58 1021.74 1021.98 1022.17 1022.37 1022.49 1022.79 1022.82 1022.92 1023.08 1023.34 1023.26 1023.21
1013.13 1013.10 1013.13 1013.38 1013.05 1012.28 1012.45 1011.12 1009.72 1009.32 1009.51 1009.83 1010.35 1010.71 1010.99 1011.44 1012.07 1012.94 1013.78 1014.60 1015.25 1015.95 1016.56 1017.20 1017.67 1018.22 1018.75 1019.30 1019.92 1020.28 1020.43 1020.63 1020.87 1020.87 1020.90 1020.89 1020.93 1021.10 1021.28 1021.47 1021.71 1021.89 1022.06 1022.16 1022.30 1022.39 1022.75 1023.17 1023.13
1013.72 1013.74 1013.82 1013.83 1013.69 1012.72 1012.32 1011.39 1009.38 1008.87 1009.19 1009.64 1010.15 1010.44 1010.57 1010.90 1011.37 1012.26 1013.03 1014.00 1014.86 1015.33 1015.92 1016.51 1017.16 1017.71 1018.25 1018.87 1019.41 1019.92 1020.33 1020.60 1020.68 1020.60 1020.57 1020.53 1020.42 1020.49 1020.60 1020.79 1021.04 1021.24 1021.35 1021.46 1021.32 1021.56 1021.96 1022.62 1022.84
1014.18 1014.29 1014.31 1014.23 1014.02 1013.34 1011.78 1011.75 1008.75 1008.34 1009.14 1009.28 1009.50 1009.99 1010.25 1010.45 1010.88 1011.58 1012.25 1013.12 1013.89 1014.74 1015.42 1015.93 1016.57 1017.18 1017.68 1018.23 1018.79 1019.44 1019.99 1020.11 1020.10 1020.13 1020.11 1019.99 1019.73 1019.71 1019.80 1019.95 1020.15 1020.40 1020.66 1020.72 1020.90 1020.96 1021.33 1021.65 1021.98
1014.53 1014.62 1014.43 1014.32 1014.07 1013.33 1011.17 1010.99 1008.70 1007.89 1007.49 1008.13 1008.56 1009.11 1009.59 1010.14 1010.61 1011.19 1011.68 1012.54 1013.35 1014.14 1014.94 1015.62 1016.22 1016.71 1017.10 1017.63 1018.21 1018.77 1019.42 1019.77 1019.87 1019.81 1019.78 1019.49 1019.39 1019.36 1019.23 1019.30 1019.49 1019.61 1019.77 1020.02 1020.20 1020.39 1020.58 1020.77 1020.94
1014.88 1014.92 1014.61 1014.66 1014.08 1012.63 1010.94 1010.53 1008.06 1006.68 1006.14 1006.81 1007.66 1008.50 1009.10 1009.69 1010.29 1010.97 1011.70 1012.24 1013.10 1013.90 1014.50 1015.21 1015.83 1016.35 1016.65 1017.19 1017.69 1018.13 1018.64 1019.09 1019.33 1019.33 1019.23 1019.26 1019.05 1018.84 1018.70 1018.74 1018.98 1019.14 1019.20 1019.35 1019.51 1019.84 1019.92 1020.11 1020.29
1014.66 1014.56 1014.52 1014.13 1013.30 1012.20 1011.47 1009.56 1006.80 1005.43 1005.30 1005.84 1006.70 1007.80 1008.81 1009.64 1010.05 1010.77 1011.40 1012.03 1012.79 1013.56 1014.14 1014.79 1015.39 1015.89 1016.24 1016.68 1017.09 1017.54 1018.01 1018.35 1018.49 1018.47 1018.55 1018.47 1018.36 1018.19 1018.01 1018.10 1018.18 1018.30 1018.49 1018.65 1018.86 1019.23 1019.31 1019.44 1019.40
1014.31 1014.67 1014.35 1014.12 1012.71 1012.34 1010.24 1008.09 1006.40 1005.75 1005.73 1006.16 1006.86 1007.75 1008.55 1009.26 1009.72 1010.42 1011.14 1011.76 1012.45 1013.16 1013.63 1014.19 1014.84 1015.32 1015.69 1016.03 1016.49 1016.99 1017.32 1017.58 1017.72 1017.76 1017.83 1017.77 1017.72 1017.69 1017.71 1017.64 1017.88 1017.86 1017.99 1018.10 1018.37 1018.56 1018.62 1018.78 1018.78
1014.97 1015.01 1014.66 1014.42 1013.83 1012.53 1009.40 1007.61 1006.12 1006.14 1006.20 1006.51 1007.08 1007.64 1008.32 1008.99 1009.48 1010.12 1010.70 1011.24 1011.87 1012.29 1012.90 1013.59 1014.12 1014.54 1014.88 1015.25 1015.76 1016.21 1016.48 1016.75 1016.94 1017.15 1017.19 1017.15 1017.14 1017.19 1017.23 1017.34 1017.42 1017.50 1017.64 1017.74 1018.01 1017.84 1017.91 1018.08 1018.05
1015.01 1014.77 1014.42 1014.08 1013.43 1012.31 1010.15 1007.44 1005.47 1004.94 1005.44 1006.11 1006.75 1007.34 1007.87 1008.47 1008.97 1009.55 1010.19 1010.68 1011.27 1011.67 1012.26 1012.82 1013.42 1013.86 1014.28 1014.63 1015.08 1015.49 1015.77 1016.00 1016.21 1016.38 1016.40 1016.51 1016.53 1016.60 1016.67 1016.73 1016.83 1017.04 1017.14 1017.20 1017.20 1017.29 1017.33 1017.37 1017.40
1013.31 1013.56 1013.83 1013.83 1013.09 1012.11 1010.77 1007.63 1005.14 1004.73 1004.75 1005.27 1006.20 1006.80 1007.40 1007.91 1008.41 1009.06 1009.56 1010.19 1010.82 1011.43 1011.86 1012.33 1012.81 1013.23 1013.63 1013.97 1014.44 1014.86 1015.12 1015.36 1015.58 1015.69 1015.76 1015.79 1015.87 1015.95 1016.06 1016.16 1016.31 1016.41 1016.47 1016.52 1016.59 1016.60 1016.59 1016.81 1016.88
Wind_Speed
15 10 2 2 2 3 5 5 4 9 4 7 7 6 11 10 6 4 5 7 10 16 11 9 10 9 8 9 9 8 8 10 11 12 12 14 12 14 14 14 15 15 15 16 17 17 16 16 15
7 15 2 4 3 3 4 6 11 8 7 4 4 4 6 6 8 9 7 10 10 13 13 10 11 11 7 9 8 8 8 8 11 10 11 12 13 13 13 13 14 13 14 15 14 15 15 16 16
10 11 2 3 5 4 3 10 8 7 3 3 4 5 5 4 13 9 10 10 9 10 14 11 13 10 11 9 8 9 7 8 9 9 9 11 10 12 12 12 13 12 13 13 14 14 14 15 15
4 3 4 3 10 7 7 10 9 7 6 3 4 9 6 6 3 11 9 10 9 10 13 11 12 10 10 9 8 8 7 6 8 8 10 10 10 11 11 11 11 12 12 13 13 13 13 14 15
3 4 4 6 1 6 11 8 4 6 4 5 2 6 7 5 11 12 9 9 9 11 12 9 12 10 10 8 8 7 6 5 7 6 8 7 8 7 9 9 9 10 10 11 11 11 12 13 14
3 3 6 7 4 9 8 5 3 6 4 6 3 6 6 8 9 9 9 8 8 8 13 10 11 10 10 8 8 7 6 5 5 5 6 6 6 5 7 7 7 9 8 9 9 9 9 11 12
5 4 8 9 7 6 8 6 1 5 4 6 3 2 7 8 10 9 8 8 9 8 11 11 8 8 10 9 9 7 6 5 4 4 4 3 4 3 3 6 7 7 7 8 7 7 8 8 9
3 3 8 3 5 5 7 5 6 3 5 3 3 2 7 9 10 9 8 8 8 8 6 9 11 10 8 7 10 8 6 5 5 5 3 4 5 5 4 2 5 6 6 6 5 6 5 5 4
2 3 6 6 3 7 7 4 2 2 5 1 4 7 10 12 10 8 6 7 6 6 6 7 7 8 8 9 8 9 8 6 6 6 7 7 5 7 7 5 2 2 2 3 3 4 5 5 6
3 4 5 8 9 4 6 4 8 4 6 6 7 7 11 10 9 9 8 8 8 8 6 6 6 6 5 5 8 7 7 6 6 7 7 5 2 4 2 4 5 5 4 5 5 6 8 8 4
5 4 3 7 8 7 4 2 2 5 5 7 13 15 11 8 10 10 9 8 9 9 6 6 5 6 6 3 5 3 3 3 2 3 2 2 2 3 4 3 3 3 7 4 6 6 4 5 3
5 3 5 2 4 1 3 3 1 6 7 8 7 17 12 11 10 10 10 10 10 9 9 8 8 5 5 3 3 4 4 3 3 3 3 1 2 3 2 1 1 1 3 3 3 2 4 4 6
9 5 1 5 2 3 3 5 7 6 9 8 6 11 12 10 10 10 10 10 10 10 9 9 8 7 5 5 4 3 3 4 4 4 5 3 3 3 3 3 3 3 2 2 3 3 4 5 6
4 1 4 5 6 4 3 7 4 8 10 9 9 8 9 11 11 9 9 9 9 10 10 10 9 7 7 5 5 3 3 3 3 3 5 7 5 3 4 4 3 3 3 3 2 3 3 4 5
3 4 5 7 7 4 1 7 10 7 6 7 11 11 10 10 10 10 10 9 10 8 10 10 10 10 7 7 5 4 3 2 2 4 6 6 5 6 5 4 3 4 3 2 2 5 4 4 4
5 7 6 6 6 4 4 4 10 10 10 9 10 10 10 10 10 10 10 9 9 9 10 10 9 9 9 6 5 4 5 4 4 4 5 7 7 6 5 3 3 3 2 2 2 3 4 4 4
7 4 6 6 7 4 7 6 8 9 9 9 9 10 10 10 10 9 10 10 9 9 10 10 9 9 9 8 5 6 7 5 5 5 4 6 7 7 5 4 4 5 3 4 4 4 4 3 4
6 4 2 3 7 6 7 11 8 11 11 10 9 8 10 11 12 10 10 10 10 9 9 10 9 9 9 6 5 4 4 5 4 5 5 7 5 7 5 4 5 4 3 4 4 5 4 4 4
6 6 7 2 6 1 9 11 11 9 12 11 10 9 9 11 11 11 10 10 9 9 8 10 10 9 6 4 4 4 4 3 3 5 7 7 6 7 7 5 6 5 5 6 6 4 5 3 3
7 7 8 3 5 2 9 11 10 11 10 11 10 10 10 9 10 10 11 10 10 9 9 8 9 9 6 5 4 4 4 5 5 5 6 8 7 7 6 7 6 6 4 6 6 5 3 3 4
8 5 5 5 6 12 7 11 7 10 8 8 7 6 9 10 11 11 11 11 10 10 10 10 9 9 7 8 4 2 2 2 1 2 3 5 8 8 8 8 6 7 6 5 6 6 7 4 3
6 6 3 5 6 2 4 6 4 8 8 9 9 9 7 10 9 10 12 10 10 10 9 10 10 9 8 9 6 7 5 5 4 4 5 6 8 8 8 8 7 7 5 6 6 6 6 5 5
2 3 4 4 6 7 5 2 10 11 8 10 11 11 10 9 9 10 14 13 10 10 9 9 10 9 9 9 8 6 6 4 4 4 6 6 7 8 8 8 8 7 5 6 7 7 6 5 5
3 4 7 5 3 3 10 7 5 9 11 9 10 11 11 11 10 9 8 11 9 9 9 9 10 8 9 9 9 10 9 7 5 5 5 5 4 5 7 8 7 7 7 7 7 7 8 7 6
3 3 2 2 1 5 6 4 11 4 8 11 11 11 11 9 9 9 10 9 9 10 10 8 9 9 9 9 9 9 9 8 8 7 5 5 4 4 7 7 7 6 7 7 6 6 7 7 5
7 4 1 4 1 0 2 7 9 6 8 11 11 11 10 10 9 9 9 9 9 10 10 9 9 8 9 9 9 8 9 6 6 7 5 5 5 5 6 7 7 8 7 7 6 5 5 6 6
3 5 2 4 5 1 6 8 4 4 5 7 10 11 11 10 10 11 10 9 9 10 10 10 10 9 9 9 8 8 8 9 8 8 7 5 6 4 6 6 6 6 7 7 6 5 6 7 6
2 5 2 2 3 5 8 7 7 7 9 8 9 10 10 9 9 9 9 10 9 9 9 10 10 10 9 9 8 8 8 8 8 7 8 7 7 6 7 7 6 6 6 6 7 6 6 7 6
5 4 5 1 4 3 4 6 5 11 13 14 10 9 10 10 10 9 9 9 9 8 9 9 9 10 9 8 8 8 8 8 7 7 7 7 7 7 7 7 7 7 7 7 7 7 7 8 7
6 8 8 5 4 4 2 10 1 5 11 12 11 10 9 9 9 9 9 9 9 9 8 9 8 8 8 8 8 8 8 8 7 7 7 7 7 7 7 7 7 7 7 7 8 8 7 8 8
Wind_Direction
306 300 244 302 289 220 67 92 64 37 90 67 41 14 89 44 13 96 122 121 124 118 124 125 127 114 88 91 78 75 64 54 57 61 63 61 53 55 53 51 42 42 52 45 43 49 41 39 39
303 297 317 273 251 291 67 91 71 64 74 95 112 298 65 83 72 117 124 132 135 134 137 118 129 118 99 96 93 78 73 66 67 63 58 57 57 54 48 48 55 34 46 52 41 48 41 38 36
261 267 283 232 259 58 75 85 98 98 89 18 120 37 19 96 126 139 118 146 119 106 103 125 124 127 111 106 107 92 88 75 66 67 60 61 53 53 52 46 45 42 45 46 45 42 41 37 35
319 290 259 235 270 65 56 87 108 139 115 4 329 94 79 13 103 116 160 130 127 110 108 126 136 131 118 114 110 96 93 69 80 65 54 56 40 51 45 40 41 47 40 39 43 45 40 39 36
246 266 260 245 296 106 75 94 151 105 105 104 334 125 94 56 93 121 139 142 128 121 124 136 137 140 122 120 112 106 102 77 93 66 69 56 48 51 43 34 39 44 42 39 31 42 39 38 36
286 226 266 255 125 90 100 117 88 58 111 113 224 122 92 127 118 137 149 140 144 129 125 143 141 147 132 135 129 124 120 115 92 93 87 63 55 42 42 36 30 36 39 38 37 31 44 41 37
252 284 266 296 116 124 122 128 215 84 118 87 358 61 126 155 139 148 159 145 136 142 135 135 153 156 146 148 145 140 138 139 139 131 105 81 69 39 39 26 32 23 22 29 32 34 31 39 38
297 251 269 268 301 90 90 117 22 333 49 110 353 314 164 153 142 152 161 141 138 137 152 152 152 161 164 155 158 153 151 159 164 148 147 189 215 197 213 280 25 19 11 10 21 16 15 6 23
283 300 261 229 233 89 116 159 126 0 146 207 132 73 108 126 139 147 154 144 140 146 167 159 161 166 164 150 157 162 169 171 177 181 201 226 227 216 198 129 104 331 340 333 340 327 314 291 274
239 232 355 10 50 74 135 251 136 187 201 163 118 97 118 138 157 163 172 169 166 169 184 168 165 156 141 143 156 179 180 185 194 198 193 221 241 98 100 177 190 210 238 245 248 255 264 278 261
236 286 48 45 39 6 123 199 148 200 252 194 182 155 155 161 176 177 185 184 177 174 173 174 167 160 151 197 159 162 165 173 181 192 201 303 341 238 206 185 216 202 238 240 231 246 254 261 300
278 82 351 88 40 348 265 274 168 211 249 67 40 149 156 174 185 191 185 187 172 169 172 176 164 174 170 175 159 186 160 165 180 192 170 143 267 276 311 241 166 203 235 288 287 293 302 277 267
242 126 280 83 154 254 355 263 247 265 212 148 136 136 165 181 195 193 192 183 175 170 168 172 168 171 194 181 180 207 187 160 201 172 173 187 262 265 279 243 217 228 235 248 267 287 282 293 297
3 178 186 163 200 219 239 258 118 238 226 178 158 189 187 186 194 183 194 185 177 169 164 166 169 185 182 187 189 194 198 206 185 186 189 191 203 227 235 243 224 227 231 232 271 272 294 291 295
231 230 197 202 211 233 148 253 228 223 158 207 177 189 211 190 190 194 181 190 175 178 161 165 172 167 194 191 195 177 219 203 208 206 214 211 209 214 234 227 247 225 237 238 286 281 277 276 282
232 225 224 143 159 156 167 309 199 186 168 211 200 198 194 203 190 190 177 183 181 172 166 165 169 165 176 195 197 191 192 206 213 230 220 218 212 211 230 252 254 241 208 206 269 276 287 284 278
203 242 207 170 196 145 198 301 147 157 188 213 215 200 183 189 188 194 182 172 187 178 165 162 164 175 173 186 194 191 209 202 208 217 228 224 216 212 206 223 240 235 210 206 220 252 236 261 282
344 293 116 171 178 206 238 253 252 189 193 215 229 218 186 180 192 188 178 171 177 181 171 162 163 175 183 174 183 204 201 215 213 216 219 225 217 212 212 221 231 236 223 225 228 230 246 228 248
313 317 292 274 135 225 235 247 244 208 192 205 217 227 212 183 184 173 171 171 175 171 177 170 165 177 166 174 176 193 207 216 219 214 227 228 221 216 211 212 225 229 213 220 221 227 233 274 251
303 292 291 65 94 193 273 271 253 216 214 191 195 220 220 182 168 165 162 167 176 177 178 185 177 178 178 171 182 174 184 215 200 206 214 212 220 221 214 207 219 225 226 227 228 230 253 244 209
267 247 354 331 317 231 269 274 207 221 211 170 200 216 190 186 173 163 161 174 175 185 182 183 187 180 176 181 160 189 225 312 9 263 226 220 213 214 216 219 210 217 214 218 215 209 213 226 275
293 19 349 303 321 285 178 288 194 172 176 178 193 207 221 181 180 164 167 176 178 193 176 175 182 183 186 176 181 183 188 210 218 214 226 231 227 224 217 215 217 223 220 218 216 213 205 177 223
63 350 311 304 286 299 242 194 263 137 200 204 201 187 198 197 185 176 176 176 181 174 180 173 175 185 187 179 179 188 207 210 223 234 229 222 214 214 217 212 213 218 218 230 219 220 208 197 191
67 265 231 259 237 258 213 168 257 185 197 187 188 171 179 177 182 195 171 161 169 165 169 167 174 186 183 182 185 193 205 215 228 240 241 238 230 226 224 220 216 216 217 219 224 224 214 209 212
208 292 292 267 191 232 20 176 249 241 188 176 169 162 166 170 166 173 175 164 159 161 163 169 173 192 185 184 191 195 204 213 230 235 235 244 243 234 229 217 218 222 223 230 228 226 222 215 213
191 216 255 288 266 201 33 236 251 216 165 157 150 156 157 167 166 173 167 163 161 159 164 169 184 191 187 186 199 196 197 206 221 228 232 240 235 237 237 226 216 216 219 225 222 231 233 218 228
134 206 333 306 251 325 219 253 302 125 120 130 150 149 167 172 168 168 168 172 173 168 178 180 184 195 194 191 189 195 200 205 215 225 226 229 238 243 252 255 246 228 225 226 222 226 230 227 230
250 318 134 226 238 245 255 226 225 195 183 189 171 168 172 174 165 166 172 175 176 176 174 178 184 191 194 187 184 194 200 208 214 216 230 232 238 234 238 243 244 246 243 239 229 232 230 229 231
167 243 220 269 226 228 315 255 310 197 186 187 197 183 182 182 173 170 176 179 177 171 172 179 181 185 190 183 181 191 203 209 211 213 223 225 230 228 231 229 230 232 233 234 234 234 228 232 239
195 207 203 156 243 233 154 275 318 24 190 173 189 183 186 178 174 172 172 168 172 173 167 178 184 187 185 179 181 195 201 209 210 220 227 225 228 226 224 226 230 231 231 232 231 235 238 233 236